Theta_e
303 303 303 304 304 304 305 306 307 307 308 304 300 304 295 293 289 298 305 307 303 295 287 287 287 286 288 293 289 293 293 291 292 293 294 292 295 295 294 290 291 293 294 294 293 294 290 292 290 293 295 295 298 303 304 305 301 300 297 298 299 297 288 285 286 290 292 295 298 299 300 302 298 299 300 298 294 295 292 291 293 289 290 288 288 285 290
303 303 303 303 303 303 304 305 306 307 307 304 303 297 295 293 292 294 302 306 301 290 282 283 285 287 284 289 288 293 290 290 289 291 293 292 292 291 292 294 297 291 296 295 291 295 286 292 293 292 296 294 301 302 303 304 300 299 297 294 298 290 290 289 285 284 285 288 291 293 295 296 293 293 297 299 300 298 297 293 290 288 289 290 287 282 288
301 302 302 302 302 302 303 304 305 306 305 307 303 296 297 294 296 294 294 303 299 287 289 287 286 286 285 285 285 287 288 291 293 293 292 294 294 293 291 295 296 294 296 291 295 294 292 287 295 295 295 295 297 301 303 304 301 303 304 299 302 294 291 288 283 280 278 278 279 281 285 288 293 297 297 298 297 296 294 288 289 285 289 291 288 287 295
302 302 302 302 302 302 302 303 304 304 304 304 305 301 295 290 284 289 288 293 294 294 292 293 288 287 285 284 286 289 286 291 292 291 289 294 291 293 296 298 297 294 293 290 288 290 293 290 288 292 292 294 295 301 302 302 303 301 300 301 300 291 295 292 290 288 286 290 291 296 297 292 288 292 295 296 298 298 297 293 289 285 289 288 291 293 294
300 301 302 302 301 301 302 302 302 303 303 303 302 295 295 294 287 286 283 287 290 289 292 289 289 287 289 284 287 285 287 290 290 294 287 293 291 292 294 293 292 290 292 289 289 289 289 292 291 291 292 294 295 297 301 302 301 298 299 301 299 291 290 292 293 292 293 294 289 295 296 291 292 291 293 296 296 296 294 290 287 293 289 284 292 295 293
300 301 301 301 301 301 301 301 301 302 303 302 303 291 295 286 288 290 291 285 283 284 286 290 289 289 290 287 290 287 287 287 285 290 290 289 292 289 288 292 294 293 291 291 287 288 287 288 287 293 293 291 292 292 296 299 298 298 301 303 298 292 288 293 293 291 293 294 295 296 295 294 293 293 293 293 294 293 290 290 293 293 287 285 293 294 292
300 300 301 301 301 301 301 300 300 301 301 301 300 291 291 293 293 292 292 286 287 289 290 292 290 288 289 289 288 286 287 286 289 288 288 289 286 290 285 288 293 294 294 292 288 289 284 284 288 289 290 291 291 290 291 295 300 300 298 299 296 291 289 293 293 291 292 292 293 294 293 293 293 294 294 295 294 293 293 292 294 294 291 293 292 291 293
299 299 300 300 300 301 301 300 299 299 300 302 298 294 290 289 290 288 291 291 288 291 291 290 289 287 290 286 287 288 288 287 289 291 289 285 288 292 287 289 292 294 294 293 289 290 291 290 287 291 291 289 293 292 293 292 297 299 296 296 298 294 288 293 293 289 290 293 294 295 293 293 292 294 295 295 295 295 295 294 295 295 293 292 291 290 290
299 299 299 300 300 300 300 300 299 298 299 296 293 290 292 291 292 294 290 286 288 291 291 288 288 286 287 285 287 288 289 288 291 289 293 291 288 291 288 292 292 295 294 294 293 295 294 295 294 295 294 289 292 292 292 298 291 295 294 296 295 294 290 294 291 287 286 291 292 293 293 292 291 291 293 293 293 291 292 290 293 291 289 290 290 288 288
298 299 299 299 300 300 300 300 299 297 297 293 292 287 293 293 295 293 292 287 290 287 290 290 288 284 288 288 289 288 289 292 292 287 292 294 296 294 293 294 293 292 293 292 294 297 297 298 299 298 298 299 298 297 297 298 294 292 293 297 292 290 291 289 288 285 284 290 292 291 291 288 285 286 290 293 294 295 295 295 295 294 294 289 285 286 293
298 298 298 299 299 299 299 299 299 297 293 287 286 287 289 290 290 293 292 286 287 288 288 287 286 288 290 290 289 292 291 292 293 287 287 293 294 297 296 295 292 291 291 296 302 302 299 300 299 300 299 298 296 294 298 299 298 296 294 291 291 291 290 289 290 284 285 288 289 290 286 278 279 293 296 295 292 293 291 291 293 295 295 293 294 295 298
297 298 298 298 298 299 299 299 299 298 294 291 290 286 289 289 289 290 287 285 286 288 287 285 286 288 290 291 291 290 290 291 291 294 290 291 295 297 296 296 295 288 298 299 299 299 300 300 299 298 297 297 298 298 298 296 297 298 298 293 289 288 288 288 289 285 284 287 287 283 277 279 292 297 297 298 297 296 294 295 296 297 298 298 297 298 299
296 297 297 298 298 298 298 299 299 298 296 293 290 285 288 289 287 288 287 286 285 285 285 286 286 287 291 292 291 290 291 293 293 293 295 292 288 293 296 296 294 295 300 299 299 297 292 287 289 291 290 293 295 297 296 296 295 298 298 298 293 288 288 289 287 287 287 285 283 275 277 289 294 294 296 298 297 296 295 293 296 297 299 299 297 299 300
296 296 297 297 297 297 298 298 298 298 298 295 290 288 288 287 286 287 287 286 286 288 288 287 286 287 288 291 291 291 293 290 291 293 289 293 292 291 294 295 298 300 301 300 296 292 286 287 284 285 284 287 287 287 290 292 294 296 296 297 297 294 290 290 285 289 281 283 283 281 289 286 288 291 293 295 292 292 291 286 291 296 298 298 298 299 299
295 296 296 296 297 297 297 297 298 298 298 296 294 291 289 287 287 286 287 287 285 288 288 285 287 287 289 290 292 289 288 287 287 287 287 288 289 290 289 290 295 300 298 294 288 289 285 286 282 280 281 281 277 280 286 285 286 289 292 294 293 295 289 289 286 285 287 283 281 282 281 277 284 292 296 299 298 298 297 293 289 297 298 299 298 298 299
295 295 295 296 296 296 297 297 297 297 297 296 293 291 289 289 288 287 286 286 286 283 286 286 284 288 288 288 291 289 288 287 287 287 285 286 286 287 286 290 292 293 297 293 289 287 286 283 280 281 278 280 284 283 277 284 283 286 289 290 291 290 293 289 287 285 285 283 279 279 277 280 290 292 295 298 299 299 300 292 286 295 298 299 298 297 298
294 295 295 295 295 296 296 296 297 297 296 295 291 290 287 289 287 286 286 287 286 284 281 282 284 286 289 285 287 288 290 287 288 285 284 285 285 286 287 290 293 292 291 292 288 287 284 283 284 283 283 284 281 280 285 284 283 281 285 288 287 287 287 287 284 283 284 283 280 278 283 283 290 294 296 298 300 300 295 281 282 295 297 298 299 298 298
293 294 294 295 295 295 296 296 296 296 295 296 291 289 288 290 289 288 286 286 284 283 284 283 283 287 287 286 287 288 289 287 287 289 289 286 285 285 285 287 287 290 291 288 287 285 284 283 281 281 279 283 285 287 277 284 282 281 281 284 282 284 285 286 283 284 284 284 282 284 285 291 295 294 297 298 301 296 284 278 287 296 298 299 299 299 299
293 293 294 294 294 295 295 295 296 295 295 294 292 292 289 291 290 289 288 285 285 282 284 286 285 283 284 282 285 286 287 289 290 287 285 284 285 287 288 287 292 285 287 285 287 285 283 283 287 285 282 279 280 280 286 282 281 286 285 282 282 283 285 284 286 283 282 283 281 281 285 292 295 297 298 300 293 282 281 292 300 298 298 300 300 299 300
292 292 293 293 294 294 294 295 295 295 294 294 291 288 289 291 291 289 286 283 283 281 282 283 284 283 284 284 285 286 287 287 289 288 285 284 287 288 286 283 286 287 285 286 283 286 284 282 283 285 283 281 281 287 285 284 287 285 285 287 284 284 283 281 282 285 285 284 280 280 276 288 296 296 295 297 287 287 295 297 298 301 300 300 301 301 302
292 292 292 293 293 294 294 294 295 295 294 293 292 289 287 290 291 290 290 287 284 280 281 285 286 284 285 283 283 282 282 284 284 286 289 286 288 289 280 281 284 286 283 285 281 282 284 283 281 281 285 284 284 284 281 284 282 287 287 287 286 291 283 283 284 288 280 281 278 279 287 293 296 294 288 294 295 299 299 298 296 298 299 299 298 297 298
292 292 292 292 292 293 294 294 294 294 294 293 292 289 286 288 290 289 289 290 285 282 282 285 286 286 286 287 286 285 284 284 285 283 282 286 288 286 285 287 287 287 288 288 285 282 282 284 285 281 279 282 286 281 285 283 280 283 281 286 281 290 287 289 284 289 286 283 286 291 294 295 297 297 296 298 299 298 298 300 298 297 296 298 295 295 296
292 292 292 292 292 292 293 293 294 294 293 292 290 288 284 287 287 289 289 286 287 287 287 285 285 286 288 288 289 289 288 288 286 286 285 283 287 286 285 287 287 287 283 285 287 288 287 284 282 286 285 285 282 282 283 285 284 284 281 287 287 290 293 290 288 289 292 293 294 296 293 295 295 295 296 298 297 297 298 298 296 296 296 296 294 295 295
292 292 292 292 292 292 292 292 293 294 293 292 290 287 287 287 287 286 287 288 285 282 283 285 284 280 280 281 285 287 287 287 286 286 288 285 284 285 286 286 286 284 284 285 285 285 286 285 283 284 282 285 286 282 279 279 281 286 285 284 286 287 289 289 286 290 288 283 292 292 292 294 295 293 292 293 295 295 297 296 296 295 295 295 295 295 295
292 292 292 292 292 292 292 292 292 293 293 291 290 290 290 287 287 286 283 279 280 280 277 280 280 282 284 285 286 285 286 286 288 288 287 286 285 284 284 285 286 286 285 283 284 286 285 281 280 280 280 285 286 281 286 283 280 288 283 286 286 285 291 288 288 289 287 287 291 293 295 295 295 294 291 292 293 293 293 294 295 294 293 293 292 292 292
292 292 292 292 292 292 292 292 292 292 293 291 290 287 285 284 287 288 287 284 282 280 278 277 280 284 285 284 282 284 286 286 287 287 287 287 288 287 285 284 284 286 284 285 285 286 285 284 284 284 283 283 286 283 283 284 285 288 286 286 290 289 290 283 289 287 289 292 290 290 292 293 293 293 293 293 293 291 291 291 291 291 291 290 290 292 291
292 292 292 292 292 292 291 291 292 292 292 291 288 290 288 287 289 286 282 281 279 278 280 277 280 282 283 281 283 285 286 286 287 287 286 287 287 288 287 286 284 284 284 283 284 283 282 282 283 282 286 284 285 283 284 281 284 282 283 285 288 288 283 288 288 284 285 286 289 290 285 285 289 290 292 292 292 290 289 289 289 289 289 289 288 289 290
292 292 292 292 292 292 292 291 291 292 292 291 288 290 288 287 289 290 288 284 280 275 276 277 278 280 283 281 284 284 286 286 287 286 285 286 286 286 285 284 284 284 284 283 280 280 281 281 280 281 280 282 281 279 282 283 284 282 283 285 289 287 287 288 285 285 285 290 292 292 291 288 289 288 288 289 290 289 288 287 287 288 288 288 287 285 287
291 292 292 292 292 291 292 291 291 291 292 290 287 286 285 288 290 290 290 288 285 280 279 280 282 280 276 278 283 283 285 286 285 285 285 284 284 284 283 283 282 282 282 282 282 280 279 280 282 279 280 282 282 279 281 277 279 279 283 287 289 290 292 291 291 288 286 288 289 290 289 286 285 286 286 287 288 287 286 286 287 287 287 286 285 285 284
291 291 291 291 291 290 290 291 291 291 291 287 285 282 279 281 289 289 290 289 285 283 277 275 273 276 280 281 280 282 283 285 285 284 283 283 282 282 282 282 282 283 281 280 281 277 280 279 280 280 280 282 280 282 278 280 279 282 288 288 289 289 288 289 290 289 286 286 286 286 286 286 286 286 286 287 287 287 286 285 285 285 284 285 284 284 285
291 291 291 291 290 290 290 291 291 291 290 286 283 276 275 272 281 289 290 289 286 282 279 277 274 279 277 281 280 280 280 282 283 282 282 283 282 282 283 283 283 283 279 280 279 279 280 275 279 279 282 282 282 278 277 278 278 282 285 287 288 288 287 287 287 288 287 285 284 284 285 285 286 285 283 284 284 285 284 284 284 284 284 283 283 284 284
290 290 290 290 290 289 290 291 291 290 288 284 281 279 279 280 284 289 290 289 287 282 278 274 273 273 274 277 279 278 279 281 280 282 282 283 280 283 281 283 280 283 282 278 279 278 276 279 277 279 278 282 280 273 274 275 277 280 283 285 287 287 288 286 285 285 285 285 285 284 283 283 283 283 281 282 283 283 283 283 284 283 283 283 284 283 284
289 290 290 290 289 289 290 291 291 290 286 288 290 289 289 290 290 290 290 286 284 279 279 275 270 272 271 274 279 279 280 281 280 281 278 282 278 281 278 282 281 281 285 279 276 274 277 276 279 277 278 282 277 276 274 275 278 281 281 284 284 285 284 284 284 284 284 283 284 282 281 281 280 281 282 282 282 282 282 282 283 283 282 282 282 282 283
289 289 289 289 288 288 289 289 289 289 288 284 281 282 286 290 289 289 288 283 280 280 279 274 270 269 271 279 273 278 280 278 277 279 275 280 280 279 278 279 280 277 280 277 279 276 276 277 275 276 280 274 279 275 272 277 281 280 281 280 281 281 282 281 282 281 281 280 281 281 281 281 281 281 281 281 281 282 282 282 282 281 281 281 281 282 282
289 288 288 288 287 288 289 288 285 284 280 281 281 285 287 289 288 287 285 281 275 273 273 273 275 269 269 270 270 274 281 278 275 278 276 278 280 277 280 276 280 275 276 282 276 275 277 275 280 275 271 279 275 271 275 278 280 280 279 279 280 281 280 279 279 279 278 278 278 278 279 280 280 280 280 281 281 281 281 281 281 280 280 280 280 280 280
288 288 288 287 286 286 286 285 283 281 279 279 281 286 289 289 287 284 282 280 279 274 272 271 273 269 270 265 267 273 282 276 278 277 276 279 276 279 277 277 273 276 279 275 274 278 274 280 276 268 278 272 270 275 278 280 280 280 280 279 280 281 279 279 278 276 276 276 276 277 278 279 278 279 280 279 280 280 279 279 279 278 277 277 277 277 277
287 287 286 285 284 282 279 279 283 281 280 284 286 289 288 287 284 283 282 282 281 279 274 273 269 271 271 270 273 274 277 270 278 273 276 274 274 277 275 275 271 277 274 274 275 274 277 281 273 272 274 272 275 279 280 279 279 279 278 279 279 278 277 275 275 277 277 277 277 277 278 278 278 279 278 278 277 276 276 275 276 275 273 273 274 274 274
286 285 281 280 278 275 274 277 280 284 287 287 287 283 280 280 275 276 276 274 276 279 275 273 270 271 270 270 268 277 275 273 277 272 274 276 274 272 277 274 274 276 266 272 274 281 277 274 273 272 273 278 280 280 279 278 277 278 277 275 273 273 273 273 274 277 276 275 277 278 276 275 275 277 275 274 273 272 273 273 273 272 272 272 272 272 271
283 280 278 276 275 273 274 277 284 286 285 285 284 276 274 275 273 270 270 272 272 272 275 272 271 272 271 270 272 278 273 272 271 273 269 276 273 270 275 268 275 275 270 272 273 281 271 272 273 273 271 275 276 278 277 273 271 270 269 269 269 269 270 270 270 272 274 275 273 270 272 272 272 271 271 269 270 271 271 270 270 269 268 268 267 267 267
279 275 273 274 274 276 282 284 285 283 283 277 277 275 269 273 270 267 273 268 269 271 273 269 273 272 271 270 270 271 280 273 269 269 270 272 279 270 274 271 273 271 266 269 272 277 270 269 272 271 270 275 276 272 270 271 269 267 266 265 265 265 266 266 266 266 266 266 266 266 266 265 266 266 266 265 265 265 266 266 266 265 265 264 265 265 264
277 276 275 274 277 279 280 281 282 280 275 272 272 271 269 266 269 268 269 267 266 268 271 271 272 270 271 269 271 269 277 277 274 273 272 267 278 275 269 265 277 265 265 267 275 272 272 271 271 269 272 275 272 267 266 266 265 263 262 262 262 263 264 264 263 263 262 263 263 263 262 262 261 262 262 262 262 262 262 262 262 262 262 262 262 263 265
279 279 279 282 281 281 279 278 277 273 271 272 267 265 268 267 269 268 269 264 265 268 269 269 267 269 270 271 271 273 273 274 274 274 271 266 274 269 267 269 269 264 263 271 273 266 269 265 268 269 274 271 265 263 264 262 261 261 261 261 261 261 261 261 261 260 260 260 260 260 260 260 259 259 259 259 259 259 259 259 260 260 260 261 262 262 263
285 284 282 277 276 274 273 269 272 271 265 266 264 260 264 262 265 265 266 270 267 267 268 270 271 275 273 271 271 272 272 278 273 272 269 266 275 270 266 265 264 259 266 271 267 267 266 264 267 270 274 266 262 261 262 261 262 261 261 261 261 261 261 260 260 259 260 259 259 259 258 258 258 258 259 258 258 258 259 259 259 259 260 260 260 261 262
281 279 275 272 269 269 270 262 271 267 264 264 261 258 259 260 264 266 263 267 267 267 270 268 269 269 268 271 270 273 273 274 277 273 270 272 268 265 266 262 263 271 274 264 265 264 265 268 270 272 269 263 261 259 260 260 260 260 259 260 260 260 260 260 260 259 259 260 258 258 258 257 257 258 258 258 258 257 257 258 259 259 259 260 259 260 261
274 269 267 266 265 266 264 260 268 264 259 261 266 263 262 261 264 266 267 268 270 269 266 268 270 268 268 269 270 271 274 270 276 269 267 270 266 268 265 264 269 269 265 262 265 266 266 265 271 272 267 263 262 260 260 259 259 259 259 258 258 258 258 258 258 258 257 258 257 257 256 257 257 257 257 257 258 258 257 257 258 258 258 258 259 259 260
269 267 264 261 258 260 260 258 260 261 265 265 265 267 266 268 268 267 264 262 268 267 268 267 267 269 268 268 267 267 269 269 268 268 270 269 265 263 269 271 269 263 264 264 262 261 264 268 271 270 271 265 260 258 257 257 257 257 258 257 258 257 257 256 256 256 256 256 256 256 256 257 256 256 256 257 257 257 257 257 258 257 258 258 258 259 260
266 265 262 260 258 259 260 259 261 265 265 266 266 267 267 264 262 264 262 262 267 267 266 265 268 270 268 267 267 267 267 268 265 268 269 263 263 267 271 265 262 263 260 260 261 263 266 270 272 272 262 254 254 253 252 251 251 252 254 254 254 253 254 252 254 254 255 255 255 255 254 254 254 254 255 254 255 256 257 257 257 258 257 257 258 259 259
263 265 264 260 258 260 258 262 263 263 262 263 263 260 260 260 263 265 262 262 263 264 266 267 266 268 267 270 269 267 267 267 265 266 268 266 268 264 263 263 262 264 265 263 263 268 269 272 272 266 258 256 254 253 251 252 251 250 251 251 251 251 251 252 252 252 253 252 252 252 252 253 253 253 253 254 254 255 255 255 256 256 256 257 257 258 259
267 262 262 260 260 259 261 263 262 265 264 260 260 261 261 262 265 266 261 261 263 264 265 267 268 268 265 268 266 266 264 268 262 264 268 265 262 260 261 259 260 259 265 268 268 270 271 267 259 256 255 253 253 253 255 254 253 252 251 251 251 251 251 251 251 251 251 251 251 251 252 253 253 253 254 254 254 255 255 254 255 255 255 256 256 257 258
264 262 261 260 260 262 261 261 262 263 265 261 260 262 262 262 263 264 263 261 262 264 266 269 270 267 266 266 261 263 263 266 264 266 264 262 263 263 261 258 261 261 265 269 270 269 266 263 260 256 254 254 254 252 252 252 253 253 251 250 250 249 249 249 249 250 250 250 251 251 252 252 253 254 254 254 255 255 255 254 254 254 254 255 255 256 256
263 262 264 267 265 265 263 260 263 263 264 265 264 263 262 263 264 263 263 263 263 265 266 265 266 265 264 263 261 258 260 266 263 262 262 262 265 262 261 260 263 267 268 268 266 267 266 263 263 264 257 253 254 253 253 253 252 252 251 249 249 248 248 248 248 249 250 250 251 252 252 252 253 254 254 254 253 253 254 255 256 255 255 256 256 256 256
260 260 263 263 260 262 265 264 263 264 266 265 265 263 262 263 263 262 262 264 265 265 264 266 265 263 261 259 261 263 265 264 262 261 259 263 264 262 262 265 267 268 267 268 267 266 265 263 261 260 260 259 256 254 251 250 250 249 248 248 248 248 248 248 249 250 250 251 251 251 252 253 253 254 254 253 254 254 255 256 258 257 257 257 257 258 258
Wind_Speed
31 29 29 30 29 28 27 25 3 11 18 9 6 4 8 8 5 6 9 17 17 13 5 5 6 9 4 4 3 2 4 4 5 10 6 9 4 4 8 5 7 8 8 8 9 10 6 13 16 14 18 15 18 13 24 22 26 20 13 15 10 6 2 4 1 2 3 1 1 4 4 5 9 9 3 11 15 15 12 9 2 7 9 12 9 11 6
30 30 28 29 30 28 28 28 9 14 17 8 8 5 3 3 4 4 1 15 14 14 10 10 10 7 3 5 5 4 4 3 4 8 10 7 7 9 5 4 7 7 9 12 15 15 5 6 12 11 12 9 4 6 25 25 17 18 15 14 14 6 5 7 4 3 1 2 1 2 2 2 3 7 12 12 11 13 4 6 3 3 9 13 11 16 7
31 30 29 29 29 28 28 25 18 11 8 6 5 4 5 6 3 4 3 8 12 12 5 7 12 11 9 8 7 5 2 3 7 9 11 6 9 11 10 10 8 4 7 8 10 16 11 4 10 7 10 9 2 5 22 24 18 14 15 14 15 12 11 13 10 9 7 7 7 8 8 12 7 10 17 15 16 18 7 11 4 8 8 13 11 9 12
29 28 29 29 29 29 28 26 23 14 8 7 1 4 7 5 6 2 2 3 7 5 3 3 7 9 8 10 8 8 7 5 4 2 5 5 1 8 6 9 11 9 13 5 7 12 5 3 5 9 6 3 2 2 15 21 17 14 18 17 16 3 6 8 9 11 9 4 4 8 7 5 6 10 18 21 21 22 17 10 10 12 5 12 13 14 12
30 30 29 29 29 30 29 29 27 23 12 8 2 4 1 3 5 6 5 2 2 10 8 4 3 9 11 10 7 13 13 8 4 6 4 6 4 2 7 8 14 8 14 11 11 9 8 3 6 11 8 2 2 2 5 15 19 12 12 14 10 1 8 13 12 14 8 4 3 7 13 11 13 13 14 12 15 14 13 11 7 5 7 13 7 10 10
28 29 29 30 29 29 29 27 27 24 16 11 1 1 2 4 2 3 1 3 9 10 10 10 9 7 15 9 7 12 15 11 8 4 4 3 2 4 2 6 14 19 17 13 8 11 10 9 10 10 8 5 1 1 3 5 11 11 9 12 8 7 8 11 12 14 12 13 4 10 10 13 14 16 15 16 15 14 15 12 13 9 9 9 5 7 11
28 28 28 28 29 28 27 28 27 26 20 6 2 3 1 3 2 2 3 2 1 12 5 19 14 12 17 6 9 11 13 15 12 6 5 4 3 7 5 10 15 19 18 14 10 15 11 10 8 9 10 14 7 5 2 8 5 14 8 11 5 4 7 11 14 14 17 18 13 7 11 10 12 15 18 19 20 20 20 20 20 18 14 10 4 3 13
27 27 28 28 29 29 28 27 28 27 22 3 1 2 1 2 2 3 3 0 1 6 6 11 8 9 13 11 11 9 15 15 12 5 7 6 9 7 6 8 13 19 19 17 15 16 17 20 19 18 16 7 9 9 11 7 11 16 14 11 13 12 9 15 13 12 16 18 17 14 14 14 14 16 18 17 16 15 17 16 15 10 11 10 12 12 14
26 27 27 28 28 28 28 27 26 27 21 2 2 0 2 2 3 3 4 6 2 2 6 9 13 10 10 12 8 8 15 16 16 8 12 16 11 13 16 13 13 16 18 18 16 21 24 16 16 12 16 14 14 8 6 8 11 13 9 11 6 12 8 13 11 12 12 15 19 18 12 13 13 15 16 15 16 16 13 10 12 15 14 11 10 10 13
26 26 27 27 27 27 27 26 23 22 18 4 3 0 2 2 1 2 2 6 7 6 6 8 9 12 12 12 11 11 18 15 16 6 7 8 6 11 19 17 16 15 18 19 18 17 18 15 8 11 8 2 8 8 8 10 11 6 9 5 6 4 7 10 11 14 12 13 16 19 11 4 11 15 14 15 15 14 14 15 14 16 13 14 14 14 17
24 25 26 26 27 26 27 28 22 17 12 6 4 3 4 3 2 2 2 5 4 6 7 9 12 10 11 13 9 11 12 17 17 15 7 10 13 7 9 14 12 10 17 14 6 5 7 9 8 8 6 5 6 3 7 9 11 14 13 4 3 3 7 7 4 9 7 7 5 7 8 17 11 9 13 18 20 20 20 18 19 18 16 12 12 15 15
23 24 24 25 25 25 26 26 26 16 10 5 3 2 3 3 4 1 1 8 6 6 8 9 14 7 15 16 14 14 15 17 17 17 9 10 13 10 10 12 12 10 4 10 13 13 12 12 13 11 9 6 5 5 10 15 11 12 10 11 11 12 10 7 5 6 9 4 8 7 17 10 2 9 14 18 18 19 20 17 17 16 18 17 17 18 17
22 23 24 24 24 24 25 26 24 24 9 4 5 2 4 4 2 2 1 4 4 9 10 9 1 3 9 16 16 11 9 11 11 12 5 8 4 3 10 12 14 10 10 13 17 14 9 6 8 7 6 7 5 5 11 14 15 14 12 10 10 9 11 8 8 7 6 6 9 9 6 3 7 12 15 17 19 18 15 18 19 21 22 23 23 21 18
21 22 22 23 23 23 24 24 25 24 22 5 3 4 4 4 2 2 2 2 6 6 5 2 2 8 7 13 17 12 9 6 3 9 8 2 10 14 7 4 4 10 9 12 8 11 6 3 6 6 2 4 3 5 6 3 7 13 15 11 9 12 8 9 9 7 10 8 10 12 2 4 1 5 5 13 15 17 19 15 20 24 20 18 16 18 19
21 21 21 22 23 23 23 24 24 25 25 16 1 2 3 5 3 3 3 1 3 4 6 10 8 13 11 7 13 7 7 6 6 4 1 2 0 2 2 1 5 2 5 11 4 2 3 7 6 7 4 9 10 8 4 6 1 3 6 6 5 7 13 9 11 9 9 12 13 8 8 13 8 11 12 18 18 18 16 13 11 9 15 16 17 19 19
21 20 20 21 22 22 23 23 24 25 25 22 2 1 3 5 3 3 3 2 2 5 6 1 2 4 9 5 9 14 12 8 7 4 1 1 0 3 1 0 3 7 3 2 1 4 5 8 7 10 7 10 4 6 5 5 2 2 2 3 6 2 4 4 9 8 10 13 12 10 8 7 8 14 15 11 11 10 7 8 12 9 11 16 21 22 21
20 20 20 21 20 21 22 23 23 24 24 24 8 3 3 6 4 2 3 3 3 3 3 4 2 3 3 1 1 6 7 8 12 8 7 6 4 2 0 2 2 2 3 4 2 6 7 6 2 2 1 4 9 6 8 7 7 3 3 2 3 7 5 5 8 11 9 10 11 13 5 6 10 11 6 11 11 9 7 11 9 11 21 18 16 18 18
20 20 20 20 20 21 22 22 23 23 24 25 11 3 3 6 5 3 3 2 1 1 1 4 2 3 6 0 5 1 2 1 1 1 3 2 5 2 3 2 4 1 2 7 5 6 7 8 11 8 7 1 0 6 8 8 9 10 12 12 9 8 7 9 12 11 15 15 10 7 6 5 7 7 9 11 10 11 12 16 9 9 12 13 16 16 15
19 19 20 20 20 21 21 22 22 23 23 24 12 3 2 7 6 4 3 2 1 2 3 2 2 4 5 1 2 2 1 2 4 6 4 4 3 3 4 1 1 6 2 5 6 8 8 6 2 3 5 1 2 7 6 10 8 4 9 8 2 3 4 2 5 13 14 9 11 8 6 7 7 9 12 13 11 12 18 11 2 6 8 10 13 15 14
18 19 19 19 19 20 20 21 22 22 23 24 14 3 4 7 6 5 4 2 1 2 2 3 3 3 4 4 1 1 0 1 3 3 6 8 7 11 6 4 2 3 2 0 8 3 8 9 6 4 6 6 6 3 4 3 1 10 9 14 11 13 12 12 12 8 8 7 6 9 11 9 17 12 5 10 12 9 7 5 4 3 4 5 2 3 4
18 18 18 19 19 19 19 20 21 21 22 23 16 6 4 6 8 5 3 2 1 1 1 2 3 5 5 6 6 4 4 1 3 4 2 1 7 11 9 7 10 8 8 8 8 6 5 7 5 3 1 4 5 3 7 9 3 3 4 12 5 10 8 8 6 8 9 11 11 10 9 2 15 18 13 10 10 5 4 5 4 2 4 5 6 6 6
17 17 18 18 18 19 19 19 20 20 21 21 17 6 5 8 8 6 6 3 1 2 2 1 1 2 3 3 4 4 3 4 3 2 3 0 4 3 3 2 10 6 2 2 2 2 2 1 2 3 4 4 4 9 11 10 9 6 4 3 10 12 11 12 13 14 10 10 11 4 6 12 13 11 7 13 9 5 2 5 7 6 3 3 8 8 7
17 17 17 17 18 18 18 18 19 20 20 21 13 6 6 9 9 11 6 3 3 2 0 1 2 3 2 3 4 2 3 3 2 5 2 3 2 1 1 1 4 0 1 1 4 3 4 4 3 3 4 4 9 8 10 6 6 7 9 9 1 6 8 6 2 6 7 7 2 2 5 6 7 6 6 5 6 4 4 7 7 5 7 5 8 8 8
17 17 17 17 17 17 18 18 18 18 18 18 12 5 6 7 9 9 4 1 0 1 1 0 0 3 4 5 5 5 4 3 6 7 4 3 2 2 0 3 2 1 1 0 2 0 2 1 0 1 6 5 4 6 9 7 8 9 9 6 4 4 4 6 3 4 9 9 11 14 11 7 6 8 5 6 5 4 3 6 8 7 6 7 7 7 7
17 17 17 17 16 17 17 17 17 18 16 16 11 4 3 4 9 9 5 3 2 2 2 1 3 2 4 4 4 4 2 5 6 6 3 5 4 3 1 2 2 1 2 3 2 1 1 2 1 1 7 2 5 8 5 5 1 9 7 7 7 6 7 7 9 8 12 8 9 11 10 4 6 7 7 6 6 7 7 6 7 7 7 7 7 7 7
18 17 17 17 16 16 16 16 16 16 16 13 9 6 5 5 8 8 0 2 1 1 2 1 2 1 3 2 4 4 8 8 6 6 4 3 4 7 3 1 2 2 2 1 0 1 0 1 1 1 4 2 2 1 4 1 1 3 6 6 7 6 13 5 11 12 9 9 2 3 0 5 7 7 7 8 7 7 7 7 8 7 8 6 5 5 5
18 17 17 17 17 16 15 16 15 15 16 11 4 4 5 5 7 8 6 4 3 1 0 2 1 2 3 4 3 5 5 7 6 5 6 7 6 5 3 1 3 3 3 2 2 2 1 0 1 3 4 0 3 1 1 2 3 4 5 1 4 7 8 9 11 10 11 13 12 12 6 5 6 6 9 9 8 10 8 8 9 7 7 6 5 4 5
18 17 16 16 17 17 17 16 14 15 16 12 1 1 1 3 6 7 5 4 4 1 3 3 3 1 1 1 4 4 6 6 5 5 5 6 8 6 6 5 3 2 1 1 2 1 2 4 4 1 2 1 2 1 0 4 2 0 4 7 10 13 12 12 11 12 12 10 4 9 5 8 6 9 8 9 9 10 10 8 7 6 5 4 4 4 4
17 16 15 16 18 18 17 16 15 14 16 13 0 2 1 1 4 8 8 2 2 2 2 3 1 1 2 3 6 4 5 6 6 5 5 7 8 8 7 7 5 3 2 2 2 2 1 1 3 2 2 2 1 2 4 4 5 9 9 11 11 1 1 10 5 6 6 6 5 4 5 8 9 9 10 8 6 7 7 5 5 5 5 4 4 3 4
16 15 15 17 18 18 17 15 14 13 14 7 3 1 2 2 3 8 10 7 3 2 2 3 2 1 0 2 4 3 3 5 5 6 7 6 6 6 5 5 5 4 3 2 2 1 1 1 0 1 3 3 3 2 4 4 4 7 3 6 11 4 7 7 4 4 6 4 7 9 11 12 9 9 8 7 5 5 7 7 7 7 5 5 3 2 1
14 15 15 17 18 18 17 15 10 11 11 5 4 1 2 1 2 9 13 9 4 2 2 0 2 0 0 1 1 4 5 5 4 4 5 5 3 3 3 2 2 3 2 2 2 1 1 1 1 1 1 2 1 1 2 4 3 2 4 6 6 8 6 7 7 9 10 6 7 7 8 8 7 9 10 8 8 8 8 6 5 5 3 2 1 1 1
13 15 15 16 18 17 16 13 8 8 5 5 4 3 2 4 7 10 12 9 5 2 2 2 1 1 1 1 0 1 3 3 2 1 1 4 2 4 4 4 2 3 2 1 1 2 1 2 2 1 2 3 4 1 1 1 5 3 5 5 5 6 8 7 7 7 7 5 6 6 5 6 5 5 7 7 7 5 5 3 2 0 3 2 1 1 2
14 14 15 16 17 15 13 12 11 6 4 3 2 3 5 11 12 11 8 6 1 1 1 1 1 1 1 1 1 0 1 1 0 1 1 2 2 3 2 1 1 1 4 1 1 1 2 2 1 1 1 2 2 1 1 4 4 6 6 5 5 5 7 7 8 6 6 5 4 3 3 5 6 7 7 5 4 3 3 3 2 3 3 1 1 1 2
14 14 15 16 15 13 10 11 10 7 3 2 1 2 6 13 9 11 8 1 0 0 1 1 1 0 1 2 1 1 3 1 1 2 1 2 2 1 1 2 2 0 1 2 1 3 1 1 0 1 1 2 1 1 2 8 7 1 5 6 5 7 6 6 6 7 6 7 7 7 7 6 6 4 4 3 3 3 3 2 2 2 3 3 3 4 4
13 14 16 16 13 11 7 7 3 2 1 0 0 1 6 11 9 6 6 2 2 0 1 0 0 1 2 1 0 0 0 2 1 1 2 1 2 1 1 1 1 2 2 3 2 2 1 3 2 1 3 2 3 3 6 4 2 6 5 5 2 3 3 3 5 5 6 5 7 7 5 5 5 3 3 3 2 1 1 1 2 3 3 3 4 5 6
14 14 15 15 11 6 2 1 2 2 1 2 3 6 12 12 6 2 2 3 2 1 0 0 0 1 1 2 2 1 1 2 1 1 1 1 0 1 0 1 3 2 1 2 2 2 2 2 3 1 2 3 5 6 4 1 4 5 5 5 1 2 4 5 6 5 6 6 6 5 4 4 3 2 2 1 1 4 5 3 4 5 4 4 4 5 6
13 12 14 10 4 0 1 1 1 2 3 6 10 14 12 8 3 2 0 1 1 1 1 0 1 1 0 2 2 2 0 1 2 1 1 0 1 2 0 1 3 1 2 2 4 4 2 4 2 3 3 7 6 7 2 4 2 2 4 1 4 7 5 5 4 4 3 3 5 2 2 0 1 2 3 2 5 5 4 2 3 4 3 4 4 5 5
12 8 3 1 1 0 1 1 2 6 12 11 8 4 0 1 1 0 1 1 1 2 0 0 3 1 1 0 1 1 3 2 4 1 0 1 1 1 2 2 4 0 1 4 3 4 2 1 3 5 6 7 7 1 3 5 5 4 4 5 5 6 5 4 4 4 4 7 6 2 3 3 2 2 2 1 3 3 2 4 3 2 2 3 4 4 6
5 2 1 1 0 0 1 2 7 14 8 2 1 1 0 0 0 0 1 1 1 0 0 1 1 1 1 2 3 1 1 4 3 2 2 1 2 2 2 0 3 3 4 1 3 7 2 4 4 4 8 6 8 5 4 7 5 4 4 5 5 5 4 5 6 4 1 2 2 3 1 1 1 2 2 1 2 2 2 2 2 2 2 3 3 4 5
2 2 2 2 1 2 3 6 9 6 3 2 1 1 1 0 1 1 0 1 0 1 1 2 1 1 0 2 3 2 1 0 2 2 2 2 1 2 1 2 5 2 2 4 1 6 2 4 5 5 8 7 5 3 4 4 4 3 4 5 5 6 6 5 5 4 5 4 4 2 4 3 3 2 1 2 2 3 2 1 3 4 4 4 5 5 6
1 0 1 2 2 2 2 4 3 1 1 1 1 0 0 0 1 0 1 1 1 0 1 1 0 1 1 0 1 3 2 2 1 0 1 2 1 4 3 1 1 5 4 1 1 4 2 2 4 5 6 1 3 1 2 4 3 3 3 4 4 4 5 5 5 4 3 3 3 2 3 3 3 1 1 1 2 3 3 3 4 5 5 6 6 6 6
1 2 1 2 2 2 2 1 0 0 0 0 0 1 1 1 0 1 1 1 0 0 1 1 1 1 1 1 1 2 1 1 1 1 1 2 1 2 3 1 1 2 3 1 2 2 1 1 5 7 3 3 1 2 1 3 2 2 1 2 3 3 4 3 4 4 3 3 2 2 1 2 1 1 1 2 3 3 3 3 5 5 6 7 6 6 6
3 1 1 2 1 1 1 1 0 0 1 1 1 1 0 0 1 1 1 1 1 1 0 2 1 2 0 1 1 2 1 1 1 0 1 1 2 1 1 1 1 1 3 2 2 2 3 4 3 5 0 2 2 2 1 2 3 3 2 2 2 2 2 2 2 2 2 2 1 1 1 1 2 2 2 3 4 6 5 5 6 6 5 5 6 6 6
2 2 0 1 1 0 0 1 1 2 1 1 1 2 1 1 2 2 1 2 3 1 2 1 1 2 0 1 1 1 0 2 3 0 1 1 1 1 0 1 2 5 2 2 2 4 5 4 6 3 1 1 1 3 3 3 3 3 2 2 2 0 1 2 2 2 1 2 1 1 1 2 3 3 3 3 4 6 5 4 5 5 5 6 6 6 6
1 1 1 0 0 1 0 1 0 2 3 3 4 3 2 2 1 4 2 1 0 0 1 1 1 1 0 1 0 1 1 1 2 1 2 2 1 2 1 3 2 1 2 4 4 5 3 4 3 4 1 4 6 5 3 2 2 2 2 2 1 0 0 1 0 1 0 0 2 2 1 2 2 3 3 4 4 4 5 5 4 4 5 5 6 6 6
1 0 0 0 3 1 1 1 0 2 2 1 3 2 3 2 0 0 2 1 1 1 0 1 1 1 1 0 1 0 1 0 1 2 1 0 1 3 2 0 2 0 3 6 6 8 8 6 5 3 4 1 3 5 4 3 1 1 3 2 2 2 1 1 2 2 2 2 2 2 3 3 3 4 4 4 4 5 5 5 5 5 5 5 6 7 7
2 1 1 1 1 1 1 2 4 2 0 1 1 1 1 1 1 1 0 1 0 1 1 0 0 1 1 1 1 1 1 0 1 1 1 1 2 2 1 0 3 3 3 6 8 7 6 5 4 4 1 4 4 4 2 2 1 1 2 1 1 2 1 3 3 4 4 3 3 4 4 3 4 4 5 5 6 5 5 5 6 5 5 6 7 7 7
0 0 1 1 4 2 3 3 1 1 1 1 0 1 1 1 2 1 1 1 1 0 1 2 1 2 1 0 0 2 0 1 1 2 2 2 1 0 1 2 4 4 3 6 9 5 6 5 2 2 2 2 6 6 3 4 4 5 5 4 4 4 4 4 4 4 4 4 4 4 4 4 4 4 5 7 8 7 4 4 5 4 4 5 5 6 7
2 2 2 3 1 1 1 2 1 3 1 1 0 0 1 1 2 0 2 1 1 1 0 1 0 0 1 1 1 2 2 4 2 3 2 2 4 4 2 5 4 6 6 6 9 6 4 2 2 2 3 3 2 3 3 4 4 6 7 7 7 6 5 5 5 5 5 4 4 5 6 5 4 5 5 5 6 8 4 4 4 4 4 5 6 7 6
1 1 1 1 2 2 1 0 0 4 1 1 1 1 2 1 3 1 4 3 1 0 1 1 2 1 0 1 1 1 2 2 2 2 4 6 3 2 2 6 6 5 6 4 3 1 2 1 1 1 3 3 3 3 3 3 2 3 4 4 3 3 4 5 6 6 6 6 6 7 8 6 5 5 5 6 6 5 6 7 7 7 7 7 5 4 4
0 0 3 2 6 3 4 2 3 2 1 2 2 2 3 2 1 1 2 2 3 2 2 3 2 1 2 2 1 2 2 2 1 4 4 3 3 3 4 7 8 6 3 1 1 1 1 1 0 0 2 4 3 4 3 3 5 3 3 3 4 4 5 4 5 6 7 7 7 7 7 7 6 4 5 4 4 6 8 7 5 5 3 3 5 6 6
1 1 3 1 0 1 2 2 2 2 2 0 1 1 2 1 0 1 0 2 3 4 4 3 2 2 2 4 3 1 1 1 4 2 3 4 2 3 5 5 3 1 2 1 1 1 0 0 0 0 0 1 4 5 4 3 2 2 3 5 5 5 6 6 6 6 7 8 7 7 8 8 8 7 5 4 5 6 6 5 3 2 4 5 5 6 7
Wind_Direction
3 5 9 8 6 6 3 360 219 160 153 151 161 158 161 185 159 3 175 155 156 160 198 159 167 192 209 146 191 172 177 194 187 186 212 225 192 266 235 196 162 186 151 153 165 175 211 200 204 202 205 208 205 177 182 165 165 168 181 177 180 108 166 161 317 22 358 138 141 38 18 175 193 218 239 187 202 197 209 213 200 204 192 219 227 245 251
1 6 10 10 8 8 4 2 338 175 169 166 148 144 149 109 93 105 348 159 158 173 189 178 191 176 45 195 198 145 201 179 169 212 187 219 181 209 232 222 212 174 174 155 173 170 189 208 221 214 207 210 55 194 188 175 175 173 178 176 157 181 180 171 163 186 144 317 313 192 350 287 203 188 205 208 198 206 203 58 84 209 202 209 209 235 223
6 6 10 12 11 9 10 8 356 179 31 348 168 144 128 117 70 78 353 177 173 189 202 195 184 177 164 162 180 166 196 232 198 200 200 209 248 201 217 213 146 165 164 174 175 173 176 173 221 230 210 207 32 267 195 182 184 187 163 177 158 199 156 174 191 183 175 191 195 197 178 203 190 202 198 203 205 201 172 221 175 237 166 209 224 239 239
6 6 9 13 12 11 10 8 10 7 26 335 233 155 152 177 164 138 44 316 188 261 348 250 199 177 154 186 200 183 194 185 196 113 285 181 321 277 225 179 175 140 162 164 169 177 161 156 180 196 201 156 189 298 200 196 189 186 164 167 162 196 184 212 200 196 203 180 64 57 70 90 183 190 192 195 206 206 207 208 211 212 158 216 212 228 247
7 8 8 12 14 13 10 8 7 6 10 8 44 3 245 173 208 144 177 44 254 206 208 198 198 196 161 199 169 195 204 176 173 159 224 222 186 292 256 188 162 183 162 170 176 186 171 95 152 201 190 55 59 345 322 204 202 169 162 176 166 193 201 206 214 231 256 244 124 154 149 178 199 187 199 198 200 207 212 209 219 158 204 235 202 229 236
7 8 8 10 14 14 12 8 5 7 3 1 310 255 238 193 187 154 72 186 178 190 211 206 199 202 175 204 156 194 194 182 182 144 218 344 244 205 296 232 191 164 172 154 175 175 187 187 205 182 196 100 87 64 275 221 175 160 180 178 211 183 208 197 199 223 234 253 169 170 181 175 184 193 193 195 198 193 209 215 224 197 222 232 215 216 233
7 8 9 11 12 14 15 10 6 6 359 3 321 237 265 297 59 123 122 203 233 208 209 187 181 181 182 191 179 197 194 196 189 171 169 193 223 206 213 222 200 181 169 165 171 174 168 204 209 194 186 180 148 160 45 285 185 183 178 199 192 171 230 199 208 217 220 227 230 198 177 186 195 195 195 193 188 198 203 215 216 209 215 218 219 246 244
7 8 9 10 12 14 16 15 8 4 355 3 283 294 245 201 201 165 157 76 350 214 153 177 184 209 190 198 195 187 192 199 191 188 169 182 220 187 249 221 212 189 184 174 178 177 185 185 192 205 185 169 172 184 187 155 198 193 187 173 196 199 203 198 210 220 226 221 214 199 196 179 197 194 197 197 196 203 205 216 220 213 233 236 247 246 259
7 7 9 10 11 12 15 18 16 7 358 105 31 358 2 331 339 333 156 193 175 179 181 186 192 199 198 215 191 198 195 200 185 193 196 189 182 179 215 208 211 203 195 197 191 179 196 193 195 160 166 187 190 160 194 173 164 193 200 193 183 202 214 196 206 220 228 220 219 211 200 204 201 197 190 185 182 200 199 210 200 203 212 223 230 242 250
6 8 8 10 10 11 12 18 24 19 7 46 345 358 346 309 296 277 279 211 161 183 180 197 188 212 207 202 186 187 198 195 178 193 209 231 250 204 202 201 198 202 200 202 201 190 197 193 170 148 176 222 168 178 153 156 169 178 193 173 192 204 199 207 198 214 225 213 211 215 208 201 225 212 194 187 195 200 200 213 205 208 203 227 223 227 234
6 8 7 8 10 10 13 14 24 38 30 29 353 355 353 338 348 269 257 226 156 199 171 197 202 216 188 196 201 199 205 192 181 191 189 206 230 229 216 209 204 212 209 204 194 142 89 82 90 120 122 99 115 96 135 150 166 167 178 176 182 216 213 214 201 222 220 207 193 188 198 223 218 130 184 192 200 201 210 214 213 214 203 220 216 226 228
5 7 7 8 8 9 10 13 15 39 59 24 326 311 342 328 288 307 292 232 198 176 188 201 204 184 195 193 202 201 199 193 198 197 192 183 210 212 216 216 196 218 151 106 109 104 93 74 64 59 64 85 102 128 150 166 184 190 184 172 176 186 200 232 191 214 226 140 128 192 224 239 87 174 187 196 207 210 216 220 219 217 210 216 228 234 231
4 5 7 7 8 8 9 9 12 14 45 72 34 8 339 327 290 312 281 261 223 173 198 218 147 277 225 200 202 207 205 205 201 200 227 179 191 214 212 215 197 188 148 137 123 118 106 105 71 87 76 80 72 153 174 177 183 191 201 205 182 178 188 197 219 215 224 189 178 226 248 151 191 203 195 196 210 218 224 232 227 222 214 209 218 224 231
3 4 5 6 6 8 7 7 8 9 13 48 46 10 353 326 302 289 249 257 227 181 192 99 160 222 229 213 205 197 192 197 193 195 210 239 206 204 215 353 327 128 166 120 127 112 100 129 131 129 140 120 116 178 191 181 209 195 194 199 206 187 185 194 210 199 224 209 213 220 30 34 23 111 186 187 200 200 206 221 223 220 221 219 227 229 234
1 2 4 5 6 7 7 6 6 6 7 10 157 356 25 351 320 261 302 273 261 186 182 208 194 203 201 210 200 179 182 166 163 188 92 359 289 113 101 309 301 168 114 123 141 117 141 144 167 149 176 169 180 182 125 210 134 332 220 213 214 220 199 186 207 210 204 220 226 224 217 226 191 198 209 199 205 205 208 223 246 210 221 223 226 227 229
360 360 2 4 5 6 7 6 6 5 6 4 9 355 27 358 307 244 259 258 285 215 207 23 12 182 184 205 202 185 185 171 181 145 144 174 161 96 27 249 357 326 199 129 154 131 169 171 175 165 192 175 154 134 218 127 186 237 217 203 164 287 292 222 214 208 200 220 230 228 226 220 209 212 205 197 205 207 209 220 243 220 222 209 216 224 227
359 358 359 1 3 5 5 6 6 6 5 4 353 348 358 11 356 300 289 238 237 283 27 309 330 337 112 75 5 239 203 190 159 177 190 198 183 144 70 69 2 45 303 154 195 158 178 192 189 186 112 167 170 177 127 177 167 146 92 117 185 202 218 166 206 220 215 215 222 232 211 224 212 219 177 154 150 154 145 224 232 209 226 219 218 225 228
358 358 358 358 1 2 5 5 5 6 6 3 356 326 346 8 356 298 251 248 260 138 37 28 315 193 194 182 208 159 93 79 113 80 178 105 113 147 170 150 145 264 298 206 172 188 181 187 189 180 186 194 284 138 205 155 182 178 171 181 180 190 191 199 205 205 215 214 231 242 242 233 247 213 162 145 144 155 198 220 212 215 220 206 213 219 224
357 357 357 357 359 2 3 4 5 5 5 4 352 302 15 5 356 348 282 281 275 207 42 5 338 317 356 259 295 329 317 294 199 171 126 138 195 131 130 245 129 170 124 199 176 195 186 195 149 192 168 145 295 200 149 185 189 138 152 137 86 145 166 200 213 218 216 214 219 222 246 235 237 153 148 147 142 203 220 221 233 116 133 185 200 211 214
356 355 356 356 357 359 2 3 4 5 6 4 359 339 320 9 3 24 9 341 4 105 52 25 354 15 17 17 341 206 47 213 256 219 167 186 132 120 94 149 299 46 121 226 205 194 192 190 180 181 189 165 202 184 221 219 44 174 166 189 186 176 180 189 190 189 211 210 214 212 233 215 200 121 119 179 201 222 194 92 49 45 126 120 80 207 163
355 354 354 355 356 357 360 3 3 6 5 4 359 338 340 360 0 1 9 328 298 102 91 46 54 56 50 66 46 30 344 283 358 237 276 22 178 156 183 184 179 175 180 177 193 192 195 183 163 183 190 163 171 183 199 184 217 285 173 185 208 164 194 181 210 184 188 191 202 211 201 280 133 150 189 197 206 35 100 153 118 90 115 129 117 93 103
357 353 352 353 354 356 358 1 3 5 7 4 359 351 356 341 349 347 318 316 20 60 52 12 343 57 99 92 82 40 6 317 339 332 315 78 190 263 0 3 168 177 165 150 88 51 316 188 103 155 172 163 157 210 181 192 201 173 351 174 202 181 204 182 200 184 193 189 204 173 108 141 173 179 192 187 179 97 88 82 126 143 98 101 117 113 99
357 355 351 351 352 354 356 359 1 4 8 6 3 8 359 339 341 330 297 66 92 101 64 253 269 243 198 191 189 41 322 201 306 324 290 290 207 265 291 182 188 23 39 312 203 206 182 161 192 170 183 195 177 179 208 228 202 145 180 206 335 187 203 57 43 211 218 276 320 100 164 173 160 68 29 108 107 68 87 115 108 95 120 122 123 124 110
356 356 353 350 350 352 353 355 359 2 10 9 4 357 359 360 347 345 328 109 32 16 161 359 271 22 357 340 336 343 348 21 334 296 273 268 263 192 165 262 26 64 292 265 18 59 120 105 167 9 195 185 160 191 165 201 221 173 178 178 203 218 187 201 213 142 170 230 219 238 222 179 149 98 55 38 74 96 95 104 107 115 100 86 83 106 116
353 355 355 351 349 349 350 352 357 360 11 15 360 4 345 358 358 353 354 6 359 344 306 47 52 345 316 287 281 298 348 337 303 305 296 204 258 285 280 37 23 267 111 58 304 147 102 127 166 125 213 246 170 208 209 186 196 158 183 187 161 221 168 207 200 194 208 211 215 223 225 173 160 139 130 118 111 76 48 72 88 88 73 82 93 101 95
350 352 354 354 350 348 349 349 353 358 3 20 12 11 24 15 345 341 297 2 262 257 303 331 79 82 295 339 11 330 310 321 326 324 345 310 251 244 271 150 84 93 126 146 353 240 213 171 149 183 192 223 99 261 210 268 15 182 217 194 184 124 138 201 177 215 221 241 45 88 105 212 157 129 118 133 127 102 80 76 84 90 92 82 66 65 85
347 349 351 356 356 351 347 346 348 353 355 11 15 19 39 36 23 31 31 327 321 210 272 1 28 357 14 35 343 328 329 332 334 344 352 360 6 10 28 358 104 121 131 79 22 80 54 161 211 206 201 259 144 190 56 136 177 157 210 226 107 130 196 173 187 207 216 212 209 175 182 198 156 135 122 118 110 108 107 99 100 105 110 99 100 80 60
346 346 349 353 357 356 349 344 344 348 348 355 88 359 4 40 33 32 25 5 10 350 328 322 341 20 148 64 4 331 341 348 340 1 9 5 13 20 27 19 9 42 7 122 166 160 185 192 210 61 37 310 111 216 215 344 30 66 225 195 183 197 184 179 194 194 219 209 169 155 131 61 83 110 98 100 105 115 118 120 127 128 105 99 96 101 110
345 344 346 351 350 350 350 343 342 343 344 340 349 211 226 35 15 23 15 12 325 299 278 284 250 272 307 5 350 350 347 1 9 17 26 21 24 23 29 26 39 356 7 23 24 66 44 346 35 134 143 325 32 171 131 201 198 215 214 198 194 320 340 203 204 102 36 46 68 86 115 134 123 103 104 106 104 114 126 134 121 112 114 113 111 102 112
343 339 346 349 346 344 342 339 340 344 341 331 310 249 241 173 45 18 360 356 349 301 332 340 331 27 101 352 346 345 328 352 7 33 29 26 23 20 10 9 24 18 32 18 343 53 2 41 295 349 318 303 161 206 172 202 217 228 222 168 192 125 51 42 22 144 127 87 68 69 87 105 115 113 117 114 114 125 121 119 118 116 104 112 89 119 117
338 336 340 341 342 341 338 335 346 346 341 336 326 351 0 355 41 13 348 348 340 305 323 246 291 82 77 129 212 343 344 341 12 7 20 16 19 10 339 334 34 6 17 9 59 327 38 7 333 318 7 356 354 228 216 203 204 237 191 159 182 146 108 78 59 72 107 101 89 85 86 102 117 105 83 96 102 107 109 117 124 122 131 100 216 144 220
329 330 331 336 340 339 339 336 357 340 352 359 17 15 9 336 316 320 330 329 315 281 314 303 286 345 325 60 168 44 330 319 321 348 21 343 8 0 8 26 17 359 12 64 315 31 9 303 43 291 90 329 55 132 31 305 217 212 71 125 129 126 113 106 88 77 77 83 86 69 84 94 65 102 121 110 103 95 107 120 132 72 152 151 110 236 251
324 324 329 332 336 337 338 341 339 342 339 355 61 108 18 346 325 330 334 323 276 32 309 308 312 338 331 277 99 34 181 286 247 317 30 30 357 353 355 20 349 350 273 73 323 161 348 37 256 5 258 344 90 131 189 223 226 65 69 55 72 83 91 98 103 99 97 60 27 107 124 106 94 86 100 109 94 68 67 47 16 10 352 337 337 290 253
322 323 325 329 332 332 335 334 326 303 264 307 213 5 357 353 356 355 342 301 357 28 329 343 344 347 276 63 34 74 46 1 17 16 309 74 300 359 304 39 261 172 277 139 246 67 294 142 12 209 55 7 240 56 247 242 228 171 99 91 91 94 99 103 112 109 88 80 69 71 77 78 78 80 96 100 97 93 76 3 353 337 321 325 325 346 350
325 325 324 325 328 322 327 340 343 11 357 351 245 12 335 349 1 11 8 347 313 313 28 43 319 325 312 297 315 23 206 336 338 22 327 49 50 328 352 38 242 128 269 76 25 203 199 203 216 92 224 184 85 234 243 256 209 171 131 124 121 115 91 121 94 76 84 84 96 96 95 98 109 111 124 135 100 48 59 339 331 325 327 352 2 9 18
327 327 322 320 317 319 297 289 4 338 359 345 326 324 321 321 333 12 33 36 6 326 327 328 40 283 354 330 316 48 97 320 130 58 235 316 20 135 7 265 278 218 56 94 226 176 185 233 104 249 215 135 219 208 276 287 191 189 175 154 214 355 29 43 97 107 98 91 93 99 107 106 100 104 113 352 13 70 65 41 24 32 13 351 350 336 335
335 331 318 305 294 241 22 19 17 31 348 301 296 297 301 298 252 235 237 198 88 31 342 329 229 248 159 286 357 286 321 325 122 29 164 160 234 54 14 231 240 168 55 247 219 200 201 57 127 235 207 210 229 221 213 70 57 73 116 82 49 55 57 50 38 60 61 93 97 114 126 108 86 91 109 67 76 57 44 11 5 11 338 331 327 319 314
330 340 350 315 302 328 337 48 356 330 312 306 317 287 284 346 329 14 20 30 341 320 35 51 266 55 13 256 272 32 63 301 69 317 100 236 356 277 197 240 258 89 293 237 229 137 91 119 207 224 239 236 255 302 83 74 64 50 60 50 47 53 48 42 359 28 360 324 301 128 88 74 102 98 92 62 27 348 329 320 336 344 326 307 307 325 326
341 320 12 27 335 342 331 360 329 319 308 269 269 292 271 20 274 258 41 331 295 194 67 278 275 99 179 237 262 64 185 326 4 299 308 290 101 293 114 283 243 116 264 255 243 132 227 196 219 222 249 234 246 241 109 91 68 52 46 45 52 48 44 44 26 37 270 248 22 59 54 292 145 148 57 315 283 282 308 310 316 337 342 333 312 303 297
354 11 4 337 357 350 327 307 319 316 281 305 323 291 299 333 282 271 46 278 238 179 220 244 346 345 302 271 303 311 87 13 280 300 287 304 114 238 306 50 292 97 240 217 232 86 193 220 194 214 252 235 223 53 60 68 96 50 43 42 50 54 52 62 61 47 63 76 70 65 44 56 58 119 201 223 244 246 264 302 310 313 311 298 297 296 283
76 282 274 331 339 322 315 313 292 285 330 298 300 245 245 265 70 5 319 274 269 197 40 301 328 231 127 149 232 245 48 56 43 20 349 265 262 74 27 206 271 74 278 250 313 87 235 235 233 217 244 53 113 135 71 79 77 64 39 40 40 55 67 76 67 52 70 84 85 85 70 61 82 105 210 269 272 255 251 257 271 275 284 291 290 283 288
332 338 334 299 289 288 291 258 358 300 75 329 285 306 350 320 335 251 221 268 245 311 169 176 219 279 302 323 316 325 309 59 1 328 310 295 287 123 239 265 29 147 245 189 58 76 266 243 230 235 243 127 229 34 142 106 94 112 51 47 53 65 77 79 86 62 60 78 84 64 37 49 12 317 253 270 257 256 248 254 255 260 265 270 280 288 288
111 100 306 327 278 348 351 284 191 141 201 219 141 251 169 285 231 235 209 188 62 247 140 20 307 339 103 168 250 199 322 27 294 230 184 266 19 50 293 268 218 80 245 44 75 239 193 236 255 252 58 139 194 175 127 133 134 143 130 95 77 82 77 85 103 96 75 99 137 126 226 181 258 262 266 267 274 276 268 255 257 261 263 266 269 275 281
80 18 297 3 319 280 297 285 153 62 341 181 191 222 190 268 240 161 226 201 164 204 194 203 168 201 182 46 351 82 223 219 201 256 273 270 68 266 289 258 229 253 22 40 260 249 241 248 250 278 116 171 158 212 166 166 154 149 141 165 120 93 116 145 122 133 154 152 119 207 196 227 237 249 265 257 262 266 272 264 256 261 267 271 270 271 274
289 350 30 317 266 278 20 266 23 144 225 217 197 231 185 207 173 189 197 54 211 89 59 320 143 212 271 92 230 254 313 306 20 176 247 155 194 231 200 261 277 284 241 259 254 256 252 249 256 261 197 223 217 190 163 141 154 140 174 124 274 330 259 77 325 87 251 279 282 300 281 270 267 258 259 260 264 261 280 281 282 286 280 279 280 284 281
46 348 11 25 296 290 130 242 82 231 248 197 216 202 218 257 98 163 52 357 106 133 186 147 176 218 216 67 292 339 46 308 246 226 243 253 245 255 218 314 43 292 252 252 255 248 245 254 262 265 276 272 148 141 131 146 96 113 144 194 223 151 257 325 309 295 276 296 304 319 291 301 292 288 285 282 286 286 281 277 285 282 279 281 279 279 284
106 52 67 83 221 259 61 218 214 207 297 224 303 326 325 15 357 338 14 316 41 47 59 354 293 289 278 169 199 209 168 289 230 275 65 243 212 258 57 172 240 219 233 239 244 252 259 262 251 266 315 108 125 136 167 267 307 216 227 242 60 206 254 245 264 269 272 288 285 276 275 273 275 278 281 286 279 265 267 274 275 274 274 271 277 282 282
135 88 115 221 242 178 208 241 26 317 195 231 43 4 334 324 301 232 150 199 359 318 177 156 159 184 178 169 305 259 112 191 243 265 186 258 355 323 245 228 232 247 230 246 250 257 261 259 291 59 72 118 143 161 196 225 230 223 231 239 249 270 273 266 273 271 281 278 265 268 269 272 271 277 277 278 285 288 280 274 275 275 274 275 277 278 279
119 153 191 231 213 217 238 24 13 270 211 108 251 202 228 194 237 136 111 173 193 194 326 304 346 254 236 113 226 225 224 184 195 230 122 188 219 232 207 242 227 239 232 232 254 254 280 29 58 91 118 134 178 175 203 197 205 208 214 214 223 224 233 246 258 278 295 297 285 283 283 281 280 278 277 282 285 290 296 292 286 281 270 272 281 284 288
132 290 60 181 290 239 137 305 12 281 195 127 186 213 175 230 260 237 142 150 202 155 171 220 235 252 275 104 231 196 235 193 205 250 225 222 206 232 236 254 235 244 252 240 249 62 74 145 122 126 202 207 213 213 210 234 220 231 253 250 271 286 259 251 273 274 266 259 265 264 267 278 280 279 282 281 281 293 307 300 290 279 278 272 274 283 286
335 227 260 186 223 250 131 218 205 227 216 215 188 197 172 211 208 154 154 144 147 161 161 184 171 159 191 188 192 233 226 134 193 219 214 226 197 203 216 238 241 239 268 47 25 32 63 99 175 46 167 224 225 217 216 208 207 227 253 272 283 296 299 295 282 284 288 284 278 286 286 272 267 270 275 288 303 303 296 291 277 263 288 310 294 283 282
126 215 241 238 3 270 251 7 355 262 280 22 153 107 168 217 192 111 193 180 180 186 193 164 156 183 195 213 217 232 19 188 234 201 222 231 186 205 218 227 270 33 37 16 60 74 76 61 88 164 138 182 216 214 211 205 198 255 262 259 266 275 278 284 285 288 293 299 296 282 277 281 286 289 286 293 297 299 297 299 325 350 318 304 300 298 292